When you browse on this site, cookies collect data to enhance your experience and personalize the content and advertising you see.
Visit our Privacy Policy to learn more. By continuing to use the site, you agree to this use of cookies and data.
  • In Hungary
  • List of Countries
  • For 7 days
  • Water Temperature
  • Weather Map
  • News
  • Weather Widgets
  • user-avatar
    Login

    Hourly Weather Sniatowa

    Today, 21 August, Wednesday

    Time Temperature Precipitation Wind Pressure Humidity
    00:00 +19°C° 1.1 mm 4 mps 753 mmHg 76%
    01:00 +17°C° 1.1 mm 5 mps 753 mmHg 81%
    02:00 +17°C° 2 mm 6 mps 753 mmHg 85%
    03:00 +16°C° 2 mm 7 mps 753 mmHg 89%
    04:00 +15°C° 2 mm 8 mps 753 mmHg 93%
    05:00 +15°C° 0.4 mm 7 mps 753 mmHg 90%
    06:00 +15°C° 0.4 mm 7 mps 754 mmHg 88%
    07:00 +15°C° 0.4 mm 7 mps 755 mmHg 85%
    08:00 +15°C° 0 mm 6 mps 755 mmHg 84%
    09:00 +15°C° 0 mm 5 mps 756 mmHg 83%
    10:00 +17°C° 0 mm 4 mps 757 mmHg 83%
    11:00 +18°C° 0 mm 4 mps 757 mmHg 77%
    12:00 +19°C° 0 mm 4 mps 758 mmHg 72%
    13:00 +20°C° 0 mm 4 mps 758 mmHg 66%
    14:00 +20°C° 0 mm 3 mps 758 mmHg 66%
    15:00 +20°C° 0 mm 3 mps 758 mmHg 65%
    16:00 +20°C° 0 mm 3 mps 758 mmHg 64%
    17:00 +19°C° 0 mm 2 mps 758 mmHg 68%
    18:00 +20°C° 0 mm 1 mps 758 mmHg 72%
    19:00 +19°C° 0 mm 1 mps 758 mmHg 76%
    20:00 +18°C° 0 mm 1 mps 758 mmHg 78%
    21:00 +18°C° 0 mm 1 mps 759 mmHg 80%
    22:00 +16°C° 0 mm 1 mps 759 mmHg 82%
    23:00 +16°C° 0 mm 1 mps 759 mmHg 83%

    Tomorrow, 22 August, Thursday

    Time Temperature Precipitation Wind Pressure Humidity
    00:00 +15°C° 0 mm 1 mps 759 mmHg 84%
    01:00 +15°C° 0 mm 1 mps 759 mmHg 85%
    02:00 +15°C° 0 mm 1 mps 759 mmHg 86%
    03:00 +13°C° 0 mm 0 mps 759 mmHg 87%
    04:00 +13°C° 0 mm 0 mps 759 mmHg 88%
    05:00 +15°C° 0 mm 1 mps 759 mmHg 85%
    06:00 +16°C° 0 mm 1 mps 760 mmHg 81%
    07:00 +18°C° 0 mm 1 mps 760 mmHg 78%
    08:00 +18°C° 0 mm 2 mps 760 mmHg 72%
    09:00 +20°C° 0 mm 2 mps 760 mmHg 67%
    10:00 +21°C° 0 mm 3 mps 760 mmHg 61%
    11:00 +22°C° 0 mm 3 mps 760 mmHg 58%
    12:00 +22°C° 0 mm 3 mps 759 mmHg 54%
    13:00 +24°C° 0 mm 3 mps 759 mmHg 51%
    14:00 +24°C° 0 mm 3 mps 759 mmHg 50%
    15:00 +24°C° 0 mm 3 mps 758 mmHg 49%
    16:00 +24°C° 0 mm 3 mps 758 mmHg 48%
    17:00 +22°C° 0 mm 3 mps 758 mmHg 53%
    18:00 +20°C° 0 mm 2 mps 758 mmHg 58%
    19:00 +19°C° 0 mm 2 mps 758 mmHg 62%
    20:00 +18°C° 0 mm 2 mps 758 mmHg 64%
    21:00 +18°C° 0 mm 2 mps 759 mmHg 67%
    22:00 +17°C° 0 mm 2 mps 759 mmHg 69%
    23:00 +16°C° 0 mm 2 mps 759 mmHg 71%

    Day after tomorrow, 23 August, Friday

    Time Temperature Precipitation Wind Pressure Humidity
    00:00 +16°C° 0 mm 2 mps 759 mmHg 72%
    01:00 +16°C° 0 mm 2 mps 759 mmHg 74%
    02:00 +15°C° 0 mm 2 mps 759 mmHg 75%
    03:00 +15°C° 0 mm 2 mps 759 mmHg 77%
    04:00 +14°C° 0 mm 2 mps 759 mmHg 78%
    05:00 +15°C° 0 mm 2 mps 759 mmHg 75%
    06:00 +16°C° 0 mm 3 mps 759 mmHg 72%
    07:00 +17°C° 0 mm 3 mps 759 mmHg 70%
    08:00 +19°C° 0 mm 3 mps 759 mmHg 63%
    09:00 +21°C° 0 mm 3 mps 759 mmHg 57%
    10:00 +23°C° 0 mm 4 mps 759 mmHg 51%
    11:00 +25°C° 0 mm 4 mps 759 mmHg 47%
    12:00 +26°C° 0 mm 4 mps 758 mmHg 44%
    13:00 +26°C° 0 mm 4 mps 758 mmHg 40%
    14:00 +26°C° 0 mm 4 mps 758 mmHg 41%
    15:00 +26°C° 0 mm 4 mps 758 mmHg 41%
    16:00 +26°C° 0 mm 4 mps 757 mmHg 42%
    17:00 +25°C° 0 mm 4 mps 757 mmHg 47%
    18:00 +22°C° 0 mm 3 mps 757 mmHg 52%
    19:00 +20°C° 0 mm 3 mps 757 mmHg 57%
    20:00 +20°C° 0 mm 3 mps 757 mmHg 59%
    21:00 +19°C° 0 mm 3 mps 757 mmHg 62%
    22:00 +18°C° 0 mm 3 mps 757 mmHg 65%
    23:00 +18°C° 0 mm 3 mps 757 mmHg 67%

    24 August, Saturday

    Time Temperature Precipitation Wind Pressure Humidity
    00:00 +17°C° 0 mm 3 mps 757 mmHg 69%
    01:00 +17°C° 0 mm 3 mps 757 mmHg 71%
    02:00 +16°C° 0 mm 3 mps 757 mmHg 73%
    03:00 +16°C° 0 mm 3 mps 757 mmHg 74%
    04:00 +14°C° 0 mm 3 mps 757 mmHg 75%
    05:00 +16°C° 0 mm 3 mps 757 mmHg 72%
    06:00 +17°C° 0 mm 4 mps 756 mmHg 69%
    07:00 +18°C° 0 mm 4 mps 756 mmHg 66%
    08:00 +20°C° 0 mm 4 mps 756 mmHg 60%
    09:00 +22°C° 0 mm 4 mps 756 mmHg 55%
    10:00 +25°C° 0 mm 5 mps 756 mmHg 49%
    11:00 +26°C° 0 mm 5 mps 756 mmHg 47%
    12:00 +27°C° 0 mm 5 mps 756 mmHg 44%
    13:00 +28°C° 0 mm 5 mps 755 mmHg 42%
    14:00 +28°C° 0 mm 5 mps 755 mmHg 43%
    15:00 +28°C° 0 mm 4 mps 755 mmHg 44%
    16:00 +28°C° 0 mm 4 mps 754 mmHg 44%
    17:00 +26°C° 0 mm 4 mps 754 mmHg 50%
    18:00 +23°C° 0 mm 4 mps 754 mmHg 55%
    19:00 +22°C° 0 mm 3 mps 754 mmHg 60%
    20:00 +21°C° 0 mm 3 mps 754 mmHg 62%
    21:00 +20°C° 0 mm 3 mps 754 mmHg 64%
    22:00 +20°C° 0 mm 3 mps 754 mmHg 67%
    23:00 +19°C° 0 mm 3 mps 754 mmHg 68%

    25 August, Sunday

    Time Temperature Precipitation Wind Pressure Humidity
    00:00 +19°C° 0 mm 3 mps 754 mmHg 70%
    01:00 +19°C° 0 mm 3 mps 754 mmHg 72%
    02:00 +18°C° 0 mm 3 mps 754 mmHg 73%
    03:00 +18°C° 0 mm 3 mps 754 mmHg 74%
    04:00 +17°C° 0 mm 3 mps 754 mmHg 75%
    05:00 +18°C° 0 mm 4 mps 754 mmHg 73%
    06:00 +19°C° 0 mm 4 mps 754 mmHg 71%
    07:00 +19°C° 0 mm 4 mps 754 mmHg 69%
    08:00 +21°C° 0 mm 4 mps 754 mmHg 65%
    09:00 +23°C° 0 mm 5 mps 754 mmHg 61%
    10:00 +25°C° 0 mm 5 mps 754 mmHg 57%
    11:00 +27°C° 0 mm 5 mps 754 mmHg 54%
    12:00 +28°C° 0 mm 5 mps 754 mmHg 52%
    13:00 +29°C° 0 mm 5 mps 753 mmHg 49%
    14:00 +29°C° 0 mm 5 mps 753 mmHg 50%
    15:00 +29°C° 0 mm 5 mps 753 mmHg 50%
    16:00 +29°C° 0 mm 5 mps 753 mmHg 51%
    17:00 +28°C° 0 mm 4 mps 753 mmHg 55%
    18:00 +26°C° 0 mm 4 mps 753 mmHg 60%
    19:00 +25°C° 0 mm 4 mps 753 mmHg 65%
    20:00 +23°C° 0 mm 4 mps 753 mmHg 66%
    21:00 +23°C° 0 mm 5 mps 753 mmHg 67%
    22:00 +22°C° 0 mm 5 mps 753 mmHg 68%
    23:00 +22°C° 0 mm 5 mps 753 mmHg 69%

    26 August, Monday

    Time Temperature Precipitation Wind Pressure Humidity
    00:00 +21°C° 0 mm 4 mps 753 mmHg 70%
    01:00 +21°C° 0 mm 4 mps 753 mmHg 71%
    02:00 +20°C° 0 mm 3 mps 753 mmHg 73%
    03:00 +20°C° 0 mm 3 mps 753 mmHg 75%
    04:00 +19°C° 0 mm 3 mps 753 mmHg 78%
    05:00 +20°C° 0 mm 3 mps 753 mmHg 76%
    06:00 +20°C° 0 mm 3 mps 753 mmHg 75%
    07:00 +21°C° 0 mm 3 mps 753 mmHg 73%
    08:00 +24°C° 0 mm 3 mps 753 mmHg 68%
    09:00 +26°C° 0 mm 3 mps 753 mmHg 63%
    10:00 +27°C° 0 mm 3 mps 753 mmHg 58%
    11:00 +28°C° 0 mm 2 mps 753 mmHg 54%
    12:00 +30°C° 0 mm 2 mps 753 mmHg 50%
    13:00 +31°C° 0 mm 1 mps 753 mmHg 46%
    14:00 +31°C° 0 mm 1 mps 752 mmHg 46%
    15:00 +31°C° 0 mm 1 mps 752 mmHg 46%
    16:00 +31°C° 0 mm 1 mps 752 mmHg 46%
    17:00 +29°C° 0 mm 1 mps 752 mmHg 51%
    18:00 +28°C° 0 mm 1 mps 752 mmHg 55%
    19:00 +27°C° 0 mm 2 mps 752 mmHg 59%
    20:00 +26°C° 0.1 mm 2 mps 752 mmHg 64%
    21:00 +25°C° 0.1 mm 2 mps 753 mmHg 69%
    22:00 +24°C° 0.1 mm 2 mps 753 mmHg 73%
    23:00 +24°C° 0 mm 2 mps 753 mmHg 75%
    Show more